Regional Weather Roundup
Issued by NWS New Orleans/Baton Rouge, LA

Home | Current Version | Previous Version | Text Only | Print | Product List | Glossary On
Versions: 1 2 3 4 5 6 7 8 9 10 11 12 13 14 15 16 17 18 19 20 21 22 23 24 25 26 27 28 29 30 31 32 33 34 35 36 37 38 39 40 41 42 43 44 45 46 47 48 49 50
000
ASUS44 KLIX 161310
RWRLIX
NEW ORLEANS REGIONAL WEATHER ROUNDUP
NATIONAL WEATHER SERVICE NEW ORLEANS LA
800 AM CDT TUE SEP 16 2014

NOTE: "FAIR" INDICATES FEW OR NO CLOUDS BELOW 12,000 FEET WITH NO
      SIGNIFICANT WEATHER AND/OR OBSTRUCTIONS TO VISIBILITY.
      SKY/WX - SKY CONDITION AND SIGNIFICANT WEATHER.
      TMP - AIR TEMPERATURE.     DP    - DEWPOINT TEMPERATURE.
      RH  - RELATIVE HUMIDITY.   PRES  - PRESSURE.
      HI  - HEAT INDEX.          WCI   - WIND CHILL INDEX.

*  THESE STATIONS ARE NOT NWS OR FAA STATIONS AND ARE NOT UNDER
   NWS QUALITY CONTROL.

LAZ038-040-048-061>063-065>067-069-161400-
SOUTHEAST LOUISIANA

CITY           SKY/WX    TMP DP  RH WIND       PRES   REMARKS
N.O. AUDUBON     N/A     81  79  91 MISG        N/A
N.O. INTL ARPT MOSUNNY   79  76  90 W3        30.07R
N.O. LAKEFRONT MOSUNNY   83  77  82 N3        30.08R
N.O. DOWNTOWN*   N/A     81  73  78 NW3       30.07S
SLIDELL        PTSUNNY   75  72  90 CALM      30.07R
BATON ROUGE    SUNNY     76  73  91 CALM      30.07S
BOOTHVILLE     CLOUDY    79  76  90 W14       30.09R
BELLE CHASSE   PTSUNNY   79  75  87 CALM      30.06S
BOGALUSA*      FOG       75  72  90 CALM      30.09S VSB<1/4
GALLIANO*      NOT AVBL
NEW ROADS*       N/A     75  75  98 CALM      30.07S FOG
GONZALES*        N/A     75  75 100 CALM      30.06F
HAMMOND*       MOSUNNY   77  73  88 CALM      30.09R
HOUMA*         MOSUNNY   77  73  88 SE9       30.07R
PORT FOURCHON* PTSUNNY   79  73  83 CALM      30.11S HAZE

$$

MSZ070-080>082-161400-
SOUTHERN MISSISSIPPI

CITY           SKY/WX    TMP DP  RH WIND       PRES   REMARKS
MCCOMB         PTSUNNY   77  72  84 N7        30.09R
GULFPORT       SUNNY     78  73  84 NE3       30.06R
BILOXI         SUNNY     77  73  85 NE3       30.07R
PASCAGOULA     MOSUNNY   76  75  97 N5        30.06S
STENNIS ARPT*  MOSUNNY   77  72  83 VRB5      30.09R

$$

COASTAL OBSERVATIONS
LAKE AND NEARSHORE STATIONS

STATION/POSITION TIME  TEMP    WIND        PRES    WAVE
                       AIR SEA DIR/SP/G            HT/PER
                 (UTC) (F)     (DEG/KT/KT) (MB)    (FT/S)
PASCAGOULA       1300   76     350/  5/  8 1017.5
WAVELAND YACHT   1300   78     360/  6/  6 1017.5
GRAND ISLE       1300   79     140/  2/  4 1019.2
SOUTHWEST PASS   1300   79     290/  6/ 11 1019.2
NEW CANAL        1300   81     330/  1/  3 1018.7
SHELL BEACH      1300   80     260/  5/  6 1018.0

OFFSHORE STATIONS

STATION/POSITION TIME  TEMP    WIND        PRES    WAVE
                       AIR SEA DIR/SP/G            HT/PER
                 (UTC) (F)     (DEG/KT/KT) (MB)    (FT/S)
64 S DAUPHIN ISL 1246   77 85  280/ 12/ 14 1018.9    2/ 6

$$



USA.gov is the U.S. government's official web portal to all federal, state and local government web resources and services.